When you browse on this site, cookies collect data to enhance your experience and personalize the content and advertising you see.
Visit our Privacy Policy to learn more. By continuing to use the site, you agree to this use of cookies and data.
  • în România
  • Lista ţărilor
  • Pe 7 zile
  • Temperatura apei
  • Meteo pe hartă
  • Widget-uri
  • user-avatar
    Intrare

    Meteo pe oră la Catió

    Astăzi, 24 August, Sâmbătă

    Timp Temperatura Precipitaţii Vânt Presiune Umiditate
    00:00 +26°C° 0.1 mm 4 m/s 760 mmHg 91%
    01:00 +26°C° 0.1 mm 4 m/s 760 mmHg 91%
    02:00 +26°C° 0.1 mm 4 m/s 759 mmHg 91%
    03:00 +26°C° 0.2 mm 4 m/s 759 mmHg 91%
    04:00 +26°C° 0.2 mm 4 m/s 759 mmHg 92%
    05:00 +26°C° 0.2 mm 3 m/s 759 mmHg 92%
    06:00 +27°C° 0.3 mm 4 m/s 760 mmHg 89%
    07:00 +27°C° 0.3 mm 4 m/s 760 mmHg 86%
    08:00 +28°C° 0.3 mm 4 m/s 761 mmHg 84%
    09:00 +29°C° 0.8 mm 5 m/s 761 mmHg 82%
    10:00 +29°C° 0.8 mm 5 m/s 760 mmHg 81%
    11:00 +30°C° 0.8 mm 6 m/s 760 mmHg 80%
    12:00 +30°C° 0.6 mm 6 m/s 760 mmHg 79%
    13:00 +30°C° 0.6 mm 6 m/s 759 mmHg 78%
    14:00 +30°C° 0.6 mm 6 m/s 759 mmHg 78%
    15:00 +29°C° 0.1 mm 6 m/s 758 mmHg 79%
    16:00 +29°C° 0.1 mm 6 m/s 758 mmHg 81%
    17:00 +28°C° 0.1 mm 6 m/s 758 mmHg 83%
    18:00 +28°C° 0.4 mm 5 m/s 759 mmHg 85%
    19:00 +27°C° 0.4 mm 5 m/s 759 mmHg 87%
    20:00 +27°C° 0.4 mm 4 m/s 760 mmHg 90%
    21:00 +27°C° 1.5 mm 5 m/s 760 mmHg 90%
    22:00 +27°C° 1.5 mm 5 m/s 760 mmHg 91%
    23:00 +26°C° 1.5 mm 5 m/s 760 mmHg 91%

    Mâine, 25 August, Duminică

    Timp Temperatura Precipitaţii Vânt Presiune Umiditate
    00:00 +26°C° 0.5 mm 5 m/s 760 mmHg 92%
    01:00 +26°C° 0.5 mm 6 m/s 759 mmHg 92%
    02:00 +26°C° 0.5 mm 6 m/s 758 mmHg 92%
    03:00 +26°C° 0.6 mm 6 m/s 758 mmHg 92%
    04:00 +26°C° 0.6 mm 6 m/s 758 mmHg 92%
    05:00 +26°C° 0.6 mm 6 m/s 758 mmHg 92%
    06:00 +26°C° 2.5 mm 6 m/s 758 mmHg 91%
    07:00 +26°C° 2.5 mm 6 m/s 759 mmHg 91%
    08:00 +27°C° 2.5 mm 7 m/s 759 mmHg 90%
    09:00 +27°C° 1.8 mm 7 m/s 759 mmHg 89%
    10:00 +27°C° 1.8 mm 7 m/s 759 mmHg 89%
    11:00 +28°C° 1.8 mm 6 m/s 759 mmHg 88%
    12:00 +27°C° 1.9 mm 6 m/s 759 mmHg 88%
    13:00 +27°C° 1.9 mm 6 m/s 758 mmHg 88%
    14:00 +27°C° 1.9 mm 6 m/s 758 mmHg 89%
    15:00 +27°C° 2.6 mm 6 m/s 758 mmHg 89%
    16:00 +27°C° 2.6 mm 7 m/s 758 mmHg 90%
    17:00 +26°C° 2.6 mm 7 m/s 758 mmHg 90%
    18:00 +26°C° 3.3 mm 6 m/s 758 mmHg 91%
    19:00 +26°C° 3.3 mm 6 m/s 759 mmHg 92%
    20:00 +26°C° 3.3 mm 6 m/s 759 mmHg 93%
    21:00 +26°C° 3.6 mm 6 m/s 759 mmHg 94%
    22:00 +26°C° 3.6 mm 5 m/s 760 mmHg 94%
    23:00 +26°C° 3.6 mm 5 m/s 760 mmHg 94%

    Poimâine, 26 August, Luni

    Timp Temperatura Precipitaţii Vânt Presiune Umiditate
    00:00 +26°C° 4.3 mm 5 m/s 759 mmHg 94%
    01:00 +26°C° 4.3 mm 5 m/s 759 mmHg 93%
    02:00 +26°C° 4.3 mm 5 m/s 758 mmHg 93%
    03:00 +26°C° 4.2 mm 6 m/s 758 mmHg 93%
    04:00 +26°C° 4.2 mm 6 m/s 758 mmHg 93%
    05:00 +26°C° 4.2 mm 6 m/s 758 mmHg 93%
    06:00 +26°C° 7.7 mm 5 m/s 758 mmHg 93%
    07:00 +26°C° 7.7 mm 5 m/s 759 mmHg 94%
    08:00 +25°C° 7.7 mm 4 m/s 759 mmHg 94%
    09:00 +26°C° 5.4 mm 4 m/s 759 mmHg 93%
    10:00 +26°C° 5.4 mm 4 m/s 759 mmHg 93%
    11:00 +26°C° 5.4 mm 4 m/s 759 mmHg 92%
    12:00 +27°C° 3.7 mm 4 m/s 759 mmHg 90%
    13:00 +27°C° 3.7 mm 4 m/s 758 mmHg 88%
    14:00 +28°C° 3.7 mm 4 m/s 758 mmHg 87%
    15:00 +27°C° 2.1 mm 5 m/s 758 mmHg 88%
    16:00 +27°C° 2.1 mm 5 m/s 758 mmHg 90%
    17:00 +26°C° 2.1 mm 5 m/s 757 mmHg 92%
    18:00 +26°C° 0.6 mm 5 m/s 758 mmHg 92%
    19:00 +26°C° 0.6 mm 5 m/s 759 mmHg 92%
    20:00 +26°C° 0.6 mm 6 m/s 759 mmHg 92%
    21:00 +26°C° 0.1 mm 5 m/s 759 mmHg 92%
    22:00 +26°C° 0.1 mm 5 m/s 759 mmHg 92%
    23:00 +26°C° 0.1 mm 4 m/s 760 mmHg 92%

    27 August, Marţi

    Timp Temperatura Precipitaţii Vânt Presiune Umiditate
    00:00 +26°C° 0.2 mm 4 m/s 759 mmHg 92%
    01:00 +26°C° 0.2 mm 4 m/s 758 mmHg 93%
    02:00 +25°C° 0.2 mm 3 m/s 758 mmHg 93%
    03:00 +25°C° 0.7 mm 3 m/s 758 mmHg 93%
    04:00 +25°C° 0.7 mm 4 m/s 758 mmHg 93%
    05:00 +25°C° 0.7 mm 4 m/s 758 mmHg 93%
    06:00 +26°C° 0.6 mm 4 m/s 759 mmHg 90%
    07:00 +27°C° 0.6 mm 4 m/s 759 mmHg 87%
    08:00 +28°C° 0.6 mm 4 m/s 759 mmHg 84%
    09:00 +29°C° 0.2 mm 4 m/s 759 mmHg 80%
    10:00 +29°C° 0.2 mm 4 m/s 759 mmHg 76%
    11:00 +30°C° 0.2 mm 5 m/s 759 mmHg 72%
    12:00 +30°C° 0 mm 5 m/s 759 mmHg 71%
    13:00 +30°C° 0 mm 5 m/s 758 mmHg 70%
    14:00 +32°C° 0 mm 5 m/s 758 mmHg 68%
    15:00 +30°C° 0 mm 5 m/s 758 mmHg 72%
    16:00 +29°C° 0 mm 5 m/s 758 mmHg 75%
    17:00 +28°C° 0 mm 5 m/s 758 mmHg 79%
    18:00 +28°C° 0 mm 5 m/s 758 mmHg 82%
    19:00 +27°C° 0 mm 4 m/s 759 mmHg 85%
    20:00 +26°C° 0 mm 4 m/s 760 mmHg 89%
    21:00 +26°C° 0 mm 4 m/s 760 mmHg 89%
    22:00 +26°C° 0 mm 4 m/s 760 mmHg 90%
    23:00 +26°C° 0 mm 5 m/s 760 mmHg 91%

    28 August, Miercuri

    Timp Temperatura Precipitaţii Vânt Presiune Umiditate
    00:00 +26°C° 0.1 mm 4 m/s 759 mmHg 92%
    01:00 +26°C° 0.1 mm 4 m/s 759 mmHg 92%
    02:00 +26°C° 0.1 mm 4 m/s 758 mmHg 93%
    03:00 +26°C° 0.1 mm 4 m/s 758 mmHg 93%
    04:00 +25°C° 0.1 mm 4 m/s 758 mmHg 93%
    05:00 +25°C° 0.1 mm 4 m/s 759 mmHg 94%
    06:00 +26°C° 0.2 mm 4 m/s 759 mmHg 90%
    07:00 +27°C° 0.2 mm 4 m/s 759 mmHg 87%
    08:00 +28°C° 0.2 mm 4 m/s 760 mmHg 83%
    09:00 +29°C° 0.5 mm 4 m/s 759 mmHg 80%
    10:00 +29°C° 0.5 mm 4 m/s 759 mmHg 77%
    11:00 +30°C° 0.5 mm 3 m/s 759 mmHg 74%
    12:00 +30°C° 0.4 mm 4 m/s 759 mmHg 73%
    13:00 +30°C° 0.4 mm 4 m/s 758 mmHg 72%
    14:00 +30°C° 0.4 mm 5 m/s 758 mmHg 71%
    15:00 +30°C° 0.1 mm 5 m/s 758 mmHg 73%
    16:00 +29°C° 0.1 mm 5 m/s 758 mmHg 76%
    17:00 +29°C° 0.1 mm 5 m/s 758 mmHg 78%
    18:00 +28°C° 0 mm 5 m/s 758 mmHg 81%
    19:00 +27°C° 0 mm 4 m/s 759 mmHg 84%
    20:00 +27°C° 0 mm 4 m/s 759 mmHg 87%
    21:00 +26°C° 0.1 mm 4 m/s 760 mmHg 89%
    22:00 +26°C° 0.1 mm 3 m/s 760 mmHg 90%
    23:00 +26°C° 0.1 mm 3 m/s 760 mmHg 91%

    29 August, Joi

    Timp Temperatura Precipitaţii Vânt Presiune Umiditate
    00:00 +26°C° 0.4 mm 3 m/s 759 mmHg 91%
    01:00 +26°C° 0.4 mm 3 m/s 759 mmHg 91%
    02:00 +26°C° 0.4 mm 3 m/s 758 mmHg 92%
    03:00 +26°C° 0.9 mm 3 m/s 758 mmHg 92%
    04:00 +26°C° 0.9 mm 3 m/s 758 mmHg 93%
    05:00 +26°C° 0.9 mm 3 m/s 759 mmHg 93%
    06:00 +26°C° 1.9 mm 3 m/s 759 mmHg 91%
    07:00 +27°C° 1.9 mm 3 m/s 759 mmHg 88%
    08:00 +28°C° 1.9 mm 3 m/s 759 mmHg 86%
    09:00 +28°C° 2.7 mm 3 m/s 759 mmHg 86%
    10:00 +27°C° 2.7 mm 3 m/s 759 mmHg 87%
    11:00 +27°C° 2.7 mm 3 m/s 759 mmHg 88%
    12:00 +27°C° 2.6 mm 4 m/s 759 mmHg 88%
    13:00 +27°C° 2.6 mm 4 m/s 758 mmHg 88%
    14:00 +27°C° 2.6 mm 4 m/s 758 mmHg 87%
    15:00 +27°C° 0 mm 4 m/s 758 mmHg 87%
    16:00 +27°C° 0 mm 4 m/s 758 mmHg 86%
    17:00 +27°C° 0 mm 4 m/s 758 mmHg 85%
    18:00 +27°C° 0.1 mm 4 m/s 758 mmHg 87%
    19:00 +27°C° 0.1 mm 4 m/s 759 mmHg 88%
    20:00 +26°C° 0.1 mm 4 m/s 759 mmHg 90%
    21:00 +26°C° 0.5 mm 4 m/s 759 mmHg 90%
    22:00 +26°C° 0.5 mm 4 m/s 760 mmHg 91%
    23:00 +26°C° 0.5 mm 4 m/s 760 mmHg 92%
    Arată mai mult